Simultaneous Nadir Overpasses (SNOs) Predictions

Prediction of SNOs between METOP-A and NOAA-19 Satellite Orbit:

Table of predicted SNOs for the next 14.0 days since TLE Epoch: 9/13/2019
Index Date (METOP-A) Time (METOP-A) Lat,Lon (METOP-A) SZA (METOP-A ) Date (NOAA-19) Time (NOAA-19) Lat,Lon (NOAA-19) SZA (NOAA-19 ) Distance(km) Time Diff (sec)
1 09/22/2019 22:42:00 -80.13, 33.81 99.68 09/22/2019 22:40:54 -80.13, 30.06 99.85 71.58 66
2 09/22/2019 23:32:45 79.98,-160.31 80.13 09/22/2019 23:31:49 79.96,-160.31 80.10 2.88 56
3 09/23/2019 00:23:27 -79.97, 6.89 99.88 09/23/2019 00:22:47 -79.95, 6.99 99.90 2.63 40
4 09/23/2019 01:14:07 79.97, 174.25 80.15 09/23/2019 01:13:50 79.96, 174.11 80.13 2.79 17
5 09/23/2019 02:04:49 -79.96, -18.56 99.87 09/23/2019 02:04:48 -79.96, -18.58 99.86 0.47 1
6 09/23/2019 02:55:29 79.96, 148.80 80.16 09/23/2019 02:55:50 79.95, 148.84 80.15 1.88 21
7 09/23/2019 03:46:11 -79.95, -44.01 99.85 09/23/2019 03:46:48 -79.94, -43.85 99.84 3.14 37
8 09/23/2019 04:36:51 79.95, 123.35 80.17 09/23/2019 04:37:51 79.95, 123.26 80.18 1.75 60




NCC Satellite Simultaneous Nadir Overpasses (SNOs) Prediction Service
